This is the latest recevied weather packets stored in our database for station/object SP6FIG-13. If no packets are shown the sender has not sent any weather packets the latest 10 day(s).
| Time | Temp. | Humidity | Pressure | Rain* | Wind** | Luminosity | Snow |
|---|---|---|---|---|---|---|---|
| 1777556059 | 21.67° C | 33% | 1030.7 hPa | - | - | - | - |
| 1777555759 | 21.67° C | 34% | 1030.6 hPa | - | - | - | - |
| 1777555459 | 21.67° C | 30% | 1030.8 hPa | - | - | - | - |
| 1777555165 | 22.22° C | 34% | 1030.7 hPa | - | - | - | - |
| 1777554859 | 22.22° C | 32% | 1030.6 hPa | - | - | - | - |
| 1777554559 | 22.22° C | 28% | 1030.4 hPa | - | - | - | - |
| 1777554259 | 22.22° C | 27% | 1030.7 hPa | - | - | - | - |
| 1777553959 | 22.22° C | 29% | 1030.7 hPa | - | - | - | - |
| 1777553659 | 22.22° C | 30% | 1030.7 hPa | - | - | - | - |
| 1777553359 | 22.22° C | 31% | 1030.8 hPa | - | - | - | - |
| 1777553059 | 22.22° C | 35% | 1031 hPa | - | - | - | - |
| 1777552759 | 22.22° C | 32% | 1030.9 hPa | - | - | - | - |
| 1777552459 | 22.22° C | 34% | 1030.9 hPa | - | - | - | - |
| 1777552159 | 21.67° C | 33% | 1030.8 hPa | - | - | - | - |
| 1777551859 | 21.67° C | 32% | 1030.6 hPa | - | - | - | - |
| 1777551559 | 21.67° C | 32% | 1030.6 hPa | - | - | - | - |
| 1777551259 | 21.11° C | 32% | 1030.9 hPa | - | - | - | - |
| 1777550959 | 21.11° C | 31% | 1031.4 hPa | - | - | - | - |
| 1777550659 | 21.11° C | 33% | 1031 hPa | - | - | - | - |
| 1777550359 | 21.11° C | 34% | 1030.9 hPa | - | - | - | - |
| 1777550059 | 20.56° C | 34% | 1031.3 hPa | - | - | - | - |
| 1777549759 | 20.56° C | 33% | 1031.7 hPa | - | - | - | - |
| 1777549459 | 21.11° C | 32% | 1031.6 hPa | - | - | - | - |
| 1777549159 | 21.11° C | 32% | 1031.9 hPa | - | - | - | - |
| 1777548859 | 21.11° C | 32% | 1029.7 hPa | - | - | - | - |
* Rain since midnight (hover to see other rain measurements)
** Current wind speed in m/s (hover to see current wind gust speed)